Regional Weather Roundup
Issued by NWS

Home | Current Version | Previous Version | Graphics & Text | Print | Product List | Glossary Off
Versions: 1 2 3 4 5 6 7 8 9 10 11 12 13 14 15 16 17 18 19 20 21 22 23 24 25 26 27 28 29 30 31 32 33 34 35 36 37 38 39 40 41 42 43 44 45 46 47 48 49 50

000
ASUS43 KFSD 202202
RWRSD

WEATHER ROUNDUP FOR SOUTH DAKOTA
NATIONAL WEATHER SERVICE SIOUX FALLS SD
500 PM CDT THU JUL 20 2017

NOTE: "FAIR" INDICATES FEW OR NO CLOUDS BELOW 12,000 FEET WITH NO
SIGNIFICANT WEATHER AND/OR OBSTRUCTIONS TO VISIBILITY.


SDZ001>005-009-010-012>017-202300-
NORTHWEST AND NORTH CENTRAL SOUTH DAKOTA

CITY           SKY/WX    TMP DP  RH WIND       PRES   REMARKS
BUFFALO          N/A    100  56  23 S30G39    29.77F HX  99
FAITH            N/A     97  58  27 S18G32    29.90F HX  96
MOBRIDGE       SUNNY     93  56  28 SE21      29.89F
$$

SDZ012>016-024>037-041>051-057-063-072>074-202300-
SOUTHWEST AND SOUTH CENTRAL SOUTH DAKOTA

CITY           SKY/WX    TMP DP  RH WIND       PRES   REMARKS
RAPID CTY ARPT MOSUNNY   97  57  26 S14G23    29.94F HX  96
PIERRE         NOT AVBL
CUSTER         SUNNY     87  50  27 SE7G20    30.13F
PHILIP         SUNNY    100  58  24 S10G22    29.90F HX  99
PINE RIDGE     SUNNY     93  61  34 SE12      30.00F
SPEARFISH      LGT RAIN  99  52  20 W14       29.94F HX  96
WINNER         FAIR      99  62  29 SE16      29.95F HX 100
$$

SDZ004>011-016>023-039-040-202300-
NORTHEAST SOUTH DAKOTA

CITY           SKY/WX    TMP DP  RH WIND       PRES   REMARKS
ABERDEEN       SUNNY     89  64  43 SE12      29.96F
WATERTOWN      SUNNY     87  60  40 SE10      30.00F
BROOKINGS      SUNNY     87  64  46 SE12      30.01F
SISSETON         N/A     87  68  52 SE12      29.96F
$$

SDZ017-020-022-023-036>040-048>070-202300-
SOUTHEAST SOUTH DAKOTA

CITY           SKY/WX    TMP DP  RH WIND       PRES   REMARKS
SIOUX FALLS    CLOUDY    85  72  65 E13       29.98F
HURON          SUNNY     90  68  48 E14       29.94F
CHAMBERLAIN    SUNNY     95  69  42 SE10G16   29.94F HX 101
MITCHELL       SUNNY     89  73  59 SE8       29.95F HX  97
YANKTON        CLOUDY    86  76  71 E8        29.96F HX  96
$$

ABBREVIATIONS USED IN REMARKS
   TC - TEMPERATURE IN CELSIUS
  WCI - WIND CHILL INDEX
   HX - HEAT INDEX
  VSB - VISIBILITY





USA.gov is the U.S. government's official web portal to all federal, state and local government web resources and services.